sat.trackr.live / text

‹ back to catalog

WESTPAC

NORAD 25398 · 1998-043E

PAYLOAD ACTIVE UNKNOWN

§ Identity

Operator
Country
AUS
Launch date
1998-07-10
Launch site
TYMSC
Launch vehicle
Mass (kg)
RCS (m²)
0.17

External: N2YO · Heavens-Above · Gunter

§ Orbital elements

Epoch: 2026-09-15T04:40:43.128768Z

Period
101.19 min
Inclination
99.0237°
Eccentricity
0.0000931
Mean motion
14.23057581 rev/d
Perigee alt
814.4 km
Apogee alt
815.7 km
Semi-major
7,193.2 km
B*
7.9332e-6
RAAN
246.4136°
Arg perigee
3.5699°
Mean anomaly
356.5484°
Rev number
46,374

§ Raw data

WESTPAC1 25398U 98043E   26258.19494362 -.00000029  00000+0  79332-5 0  99922 25398  99.0237 246.4136 0000931   3.5699 356.5484 14.23057581463745

JSON: /api/v1/satellites/25398 · /tle

For live sub-satellite position, see the globe view (requires WebGL).

§ Visibility from observer

Set your observer location to see the next 7 days of passes ≥ 10°. The values pass through the URL so the page stays shareable.

No JS? Fill the form by hand. The geolocation button needs JavaScript.